Flag for Netherlands Weather past 2 weeks in Kralendijk, Bonaire, Netherlands

Now
82 °F

Warm.


Feels Like: 89 °F
Forecast: N/A
Wind: 18 mph from Northeast

Location: Flamingo Airport - Bonaire

Current Time: Jul 31, 2015 at 7:59:27 PM

Latest Report: Jul 31, 2015 at 7:00 PM


Visibility: N/A

Pressure: 29.86 "Hg

Humidity: 79%

Dew point: 75 °F

Location of KralendijkLocation

Historic Weather in Kralendijk — Graph

°F

Kralendijk temperature yesterday

Maximum temperature yesterday: 90 °F (at 2:00 PM)
Minimum temperature yesterday: 81 °F (at 12:00 AM)
Average temperature yesterday: 84 °F

Past Weeks' High & Low Weather Summary

 TemperatureHumidityPressure
High90 °F (Jul 30, 2:00 PM)89% (Jul 21, 10:00 PM)30.04 "Hg (Jul 21, 10:00 PM)
Low48 °F (Jul 24, 12:00 AM)62% (Jul 29, 3:00 PM)29.83 "Hg (Jul 21, 5:00 PM)
Average83 °F77%29.93 "Hg
* Reported Jul 16 6:00 PM — Jul 31 6:00 PM, Kralendijk, Weather by CustomWeather, © 2015

Note: Actual official high and low records may vary slightly from our data, if they occured in-between our weather recording intervals... More about our weather records

Advertising

Kralendijk weather history for previous 24 hours

 ConditionsComfort  
Time TempWeatherWind HumidityBarometerVisibility
6:00 PM
Fri, Jul 31
84 °FScattered clouds.21 mph74%29.86 "HgN/A
5:00 PM86 °FScattered clouds.21 mph70%29.86 "HgN/A
4:00 PM88 °FScattered clouds.22 mph70%29.86 "HgN/A
3:00 PM88 °FScattered clouds.20 mph70%29.89 "HgN/A
2:00 PM88 °FWarm.21 mph70%29.92 "HgN/A
1:00 PM88 °FPartly sunny.20 mph75%29.95 "HgN/A
12:00 PM86 °FWarm.20 mph75%29.95 "HgN/A
11:00 AM86 °FPartly sunny.17 mph79%29.95 "HgN/A
10:00 AM84 °FWarm.16 mph84%29.95 "HgN/A
9:00 AM84 °FScattered clouds.16 mph84%29.95 "HgN/A
8:00 AM82 °FWarm.16 mph84%29.92 "HgN/A
7:00 AM81 °FWarm.14 mph84%29.92 "HgN/A
6:00 AM81 °FWarm.14 mph84%29.89 "HgN/A
2:00 AM82 °FWarm.15 mph79%29.92 "HgN/A
1:00 AM82 °FWarm.14 mph79%29.95 "HgN/A
10:00 PM
Thu, Jul 30
82 °FWarm.17 mph79%29.95 "HgN/A
9:00 PM82 °FWarm.16 mph79%29.92 "HgN/A
8:00 PM82 °FWarm.15 mph74%29.89 "HgN/A
7:00 PM82 °FWarm.17 mph74%29.86 "HgN/A
Weather by CustomWeather, © 2015

See weather overviewHow to use our weather pages